When you browse on this site, cookies collect data to enhance your experience and personalize the content and advertising you see.
Visit our Privacy Policy to learn more. By continuing to use the site, you agree to this use of cookies and data.
  • In Romania
  • List of Countries
  • For 7 days
  • Water Temperature
  • Satellite Maps
  • Weather Map
  • Weather Widgets
  • user-avatar
    Login

    Hourly Weather Valencia

    Today, 16 January, Wednesday

    Time Temperature Precipitation Wind Pressure Humidity
    00:00 +22°C° 0 mm 1 mps 719 mmHg 94%
    01:00 +22°C° 0 mm 1 mps 719 mmHg 94%
    02:00 +22°C° 0 mm 1 mps 719 mmHg 94%
    03:00 +22°C° 0 mm 1 mps 719 mmHg 94%
    04:00 +22°C° 0 mm 1 mps 718 mmHg 94%
    05:00 +22°C° 0 mm 1 mps 719 mmHg 91%
    06:00 +23°C° 0 mm 1 mps 719 mmHg 89%
    07:00 +23°C° 0 mm 1 mps 720 mmHg 86%
    08:00 +26°C° 0 mm 1 mps 720 mmHg 74%
    09:00 +28°C° 0 mm 1 mps 721 mmHg 61%
    10:00 +31°C° 0 mm 1 mps 721 mmHg 49%
    11:00 +32°C° 0 mm 2 mps 720 mmHg 47%
    12:00 +32°C° 0 mm 2 mps 720 mmHg 45%
    13:00 +34°C° 0 mm 2 mps 719 mmHg 43%
    14:00 +32°C° 0 mm 2 mps 718 mmHg 48%
    15:00 +31°C° 0 mm 2 mps 718 mmHg 52%
    16:00 +30°C° 0 mm 2 mps 717 mmHg 56%
    17:00 +28°C° 0 mm 2 mps 717 mmHg 66%
    18:00 +27°C° 0 mm 2 mps 718 mmHg 76%
    19:00 +25°C° 0 mm 1 mps 718 mmHg 85%
    20:00 +25°C° 0 mm 1 mps 718 mmHg 88%
    21:00 +24°C° 0 mm 1 mps 719 mmHg 90%
    22:00 +24°C° 0 mm 1 mps 719 mmHg 93%
    23:00 +24°C° 0 mm 1 mps 719 mmHg 94%

    Tomorrow, 17 January, Thursday

    Time Temperature Precipitation Wind Pressure Humidity
    00:00 +24°C° 0 mm 1 mps 719 mmHg 94%
    01:00 +23°C° 0 mm 1 mps 719 mmHg 95%
    02:00 +23°C° 0 mm 1 mps 719 mmHg 95%
    03:00 +23°C° 0 mm 1 mps 718 mmHg 95%
    04:00 +23°C° 0 mm 1 mps 718 mmHg 95%
    05:00 +23°C° 0.1 mm 1 mps 719 mmHg 93%
    06:00 +24°C° 0.1 mm 1 mps 719 mmHg 90%
    07:00 +24°C° 0.1 mm 1 mps 720 mmHg 88%
    08:00 +27°C° 0.2 mm 1 mps 720 mmHg 77%
    09:00 +29°C° 0.2 mm 1 mps 721 mmHg 66%
    10:00 +32°C° 0.2 mm 1 mps 721 mmHg 55%
    11:00 +32°C° 0.6 mm 1 mps 720 mmHg 55%
    12:00 +32°C° 0.6 mm 1 mps 719 mmHg 55%
    13:00 +32°C° 0.6 mm 2 mps 718 mmHg 55%
    14:00 +31°C° 1 mm 2 mps 718 mmHg 61%
    15:00 +30°C° 1 mm 2 mps 717 mmHg 66%
    16:00 +28°C° 1 mm 2 mps 717 mmHg 71%
    17:00 +27°C° 0.4 mm 2 mps 717 mmHg 77%
    18:00 +26°C° 0.4 mm 2 mps 717 mmHg 83%
    19:00 +25°C° 0.4 mm 2 mps 718 mmHg 89%
    20:00 +24°C° 0 mm 1 mps 718 mmHg 91%
    21:00 +24°C° 0 mm 1 mps 718 mmHg 92%
    22:00 +24°C° 0 mm 1 mps 719 mmHg 94%
    23:00 +24°C° 0 mm 1 mps 718 mmHg 94%

    Day after tomorrow, 18 January, Friday

    Time Temperature Precipitation Wind Pressure Humidity
    00:00 +24°C° 0 mm 1 mps 718 mmHg 94%
    01:00 +23°C° 0 mm 1 mps 718 mmHg 95%
    02:00 +23°C° 0 mm 1 mps 718 mmHg 95%
    03:00 +23°C° 0 mm 1 mps 718 mmHg 95%
    04:00 +23°C° 0 mm 1 mps 717 mmHg 95%
    05:00 +23°C° 0.1 mm 1 mps 718 mmHg 93%
    06:00 +24°C° 0.1 mm 1 mps 718 mmHg 91%
    07:00 +24°C° 0.1 mm 1 mps 719 mmHg 89%
    08:00 +26°C° 0.1 mm 1 mps 719 mmHg 78%
    09:00 +29°C° 0.1 mm 1 mps 720 mmHg 67%
    10:00 +31°C° 0.1 mm 1 mps 720 mmHg 57%
    11:00 +31°C° 0.3 mm 1 mps 719 mmHg 55%
    12:00 +32°C° 0.3 mm 2 mps 718 mmHg 54%
    13:00 +32°C° 0.3 mm 2 mps 717 mmHg 52%
    14:00 +31°C° 0.7 mm 2 mps 717 mmHg 57%
    15:00 +30°C° 0.7 mm 2 mps 716 mmHg 62%
    16:00 +29°C° 0.7 mm 2 mps 716 mmHg 67%
    17:00 +28°C° 0.2 mm 2 mps 716 mmHg 75%
    18:00 +26°C° 0.2 mm 2 mps 716 mmHg 82%
    19:00 +25°C° 0.2 mm 2 mps 717 mmHg 89%
    20:00 +25°C° 0.1 mm 2 mps 717 mmHg 91%
    21:00 +24°C° 0.1 mm 2 mps 718 mmHg 92%
    22:00 +24°C° 0.1 mm 1 mps 718 mmHg 93%
    23:00 +24°C° 0.1 mm 1 mps 718 mmHg 94%

    19 January, Saturday

    Time Temperature Precipitation Wind Pressure Humidity
    00:00 +24°C° 0.1 mm 1 mps 718 mmHg 94%
    01:00 +23°C° 0.1 mm 1 mps 717 mmHg 94%
    02:00 +23°C° 0 mm 1 mps 717 mmHg 95%
    03:00 +23°C° 0 mm 1 mps 717 mmHg 95%
    04:00 +23°C° 0 mm 1 mps 717 mmHg 96%
    05:00 +23°C° 0 mm 1 mps 718 mmHg 93%
    06:00 +23°C° 0 mm 1 mps 718 mmHg 91%
    07:00 +24°C° 0 mm 1 mps 719 mmHg 89%
    08:00 +26°C° 0 mm 1 mps 719 mmHg 78%
    09:00 +29°C° 0 mm 1 mps 720 mmHg 66%
    10:00 +31°C° 0 mm 1 mps 720 mmHg 55%
    11:00 +32°C° 0.1 mm 1 mps 719 mmHg 53%
    12:00 +32°C° 0.1 mm 2 mps 718 mmHg 51%
    13:00 +34°C° 0.1 mm 2 mps 718 mmHg 49%
    14:00 +32°C° 0.1 mm 2 mps 717 mmHg 52%
    15:00 +31°C° 0.1 mm 2 mps 716 mmHg 56%
    16:00 +30°C° 0.1 mm 2 mps 716 mmHg 60%
    17:00 +29°C° 0.1 mm 2 mps 716 mmHg 69%
    18:00 +27°C° 0.1 mm 2 mps 716 mmHg 78%
    19:00 +25°C° 0.1 mm 2 mps 717 mmHg 87%
    20:00 +25°C° 0 mm 1 mps 717 mmHg 89%
    21:00 +24°C° 0 mm 1 mps 718 mmHg 91%
    22:00 +24°C° 0 mm 1 mps 718 mmHg 93%
    23:00 +24°C° 0 mm 1 mps 718 mmHg 93%

    20 January, Sunday

    Time Temperature Precipitation Wind Pressure Humidity
    00:00 +24°C° 0 mm 1 mps 718 mmHg 94%
    01:00 +24°C° 0 mm 1 mps 717 mmHg 94%
    02:00 +23°C° 0 mm 1 mps 717 mmHg 95%
    03:00 +23°C° 0 mm 1 mps 717 mmHg 95%
    04:00 +23°C° 0 mm 1 mps 717 mmHg 95%
    05:00 +23°C° 0 mm 1 mps 718 mmHg 93%
    06:00 +23°C° 0 mm 1 mps 718 mmHg 90%
    07:00 +22°C° 0 mm 0 mps 719 mmHg 88%
    08:00 +26°C° 0 mm 1 mps 719 mmHg 75%
    09:00 +29°C° 0 mm 1 mps 720 mmHg 62%
    10:00 +32°C° 0 mm 1 mps 720 mmHg 49%
    11:00 +33°C° 0 mm 1 mps 719 mmHg 47%
    12:00 +33°C° 0 mm 1 mps 719 mmHg 44%
    13:00 +34°C° 0 mm 1 mps 718 mmHg 41%
    14:00 +34°C° 0 mm 2 mps 717 mmHg 44%
    15:00 +32°C° 0 mm 2 mps 717 mmHg 47%
    16:00 +31°C° 0 mm 2 mps 716 mmHg 51%
    17:00 +29°C° 0 mm 2 mps 716 mmHg 62%
    18:00 +27°C° 0 mm 2 mps 717 mmHg 73%
    19:00 +25°C° 0 mm 2 mps 717 mmHg 84%
    20:00 +25°C° 0 mm 2 mps 717 mmHg 87%
    21:00 +25°C° 0 mm 2 mps 718 mmHg 90%
    22:00 +24°C° 0 mm 2 mps 718 mmHg 93%
    23:00 +24°C° 0 mm 2 mps 718 mmHg 93%

    21 January, Monday

    Time Temperature Precipitation Wind Pressure Humidity
    00:00 +24°C° 0 mm 2 mps 718 mmHg 93%
    01:00 +24°C° 0 mm 1 mps 718 mmHg 93%
    02:00 +24°C° 0 mm 1 mps 718 mmHg 93%
    03:00 +24°C° 0 mm 1 mps 718 mmHg 93%
    04:00 +23°C° 0 mm 1 mps 718 mmHg 93%
    05:00 +24°C° 0 mm 1 mps 718 mmHg 91%
    06:00 +24°C° 0 mm 1 mps 719 mmHg 89%
    07:00 +25°C° 0 mm 1 mps 719 mmHg 87%
    08:00 +26°C° 0 mm 1 mps 720 mmHg 78%
    09:00 +28°C° 0 mm 1 mps 720 mmHg 69%
    10:00 +30°C° 0 mm 2 mps 720 mmHg 60%
    11:00 +31°C° 0.1 mm 2 mps 720 mmHg 58%
    12:00 +31°C° 0.1 mm 2 mps 719 mmHg 55%
    13:00 +32°C° 0.1 mm 2 mps 718 mmHg 52%
    14:00 +31°C° 0 mm 3 mps 718 mmHg 57%
    15:00 +30°C° 0 mm 3 mps 717 mmHg 61%
    16:00 +29°C° 0 mm 3 mps 717 mmHg 65%
    17:00 +28°C° 0 mm 3 mps 717 mmHg 74%
    18:00 +26°C° 0 mm 3 mps 717 mmHg 82%
    19:00 +24°C° 0 mm 3 mps 718 mmHg 90%
    20:00 +24°C° 0 mm 2 mps 718 mmHg 90%
    21:00 +24°C° 0 mm 2 mps 718 mmHg 91%
    22:00 +23°C° 0 mm 2 mps 719 mmHg 92%
    23:00 +23°C° 0 mm 2 mps 718 mmHg 92%
    Show more